Regional Weather Roundup
Issued by NWS

Home | Current Version | Previous Version | Text Only | Print | Product List | Glossary Off
Versions: 1 2 3 4 5 6 7 8 9 10 11 12 13 14 15 16 17 18 19 20 21 22 23 24 25 26 27 28 29 30 31 32 33 34 35 36 37 38 39 40 41 42 43 44 45 46 47 48 49 50

000
ASUS45 KBOU 200707
RWRCO

WEATHER ROUNDUP FOR COLORADO
NATIONAL WEATHER SERVICE DENVER/BOULDER CO
100 AM MDT SUN AUG 20 2017

NOTE: "FAIR" INDICATES FEW OR NO CLOUDS BELOW 12000 FEET WITH NO
SIGNIFICANT WEATHER AND/OR OBSTRUCTIONS TO VISIBILITY.

COZ001>005-013-030-031-200800-
...NORTHWEST COLORADO...

CITY           SKY/WX    TMP DP  RH WIND       PRES   REMARKS
CRAIG          FAIR      57  41  55 CALM      30.19R
HAYDEN         FAIR      62  35  36 E8        30.22S
MEEKER         FAIR      55  37  50 NE7       30.22R
RABBIT EARS PA FAIR      54  32  43 W7        30.51S
STEAMBOAT SPGS FAIR      57  37  47 CALM      30.24S
WALDEN         FAIR      54  32  43 SE7       30.33S
$$

COZ006>008-011-200800-
...WEST CENTRAL VALLEYS...

CITY           SKY/WX    TMP DP  RH WIND       PRES   REMARKS
GRAND JUNCTION FAIR      68  34  28 W7        30.07R
MONTROSE       FAIR      65  38  36 SE10      30.16S
EAGLE          FAIR      58  34  40 CALM      30.26R
RIFLE          FAIR      61  37  41 SE3       30.15R
DELTA          FAIR      68  38  33 NE7       30.12S
NUCLA          FAIR      63  34  34 E7        30.19S
$$

COZ017>023-064>068-200800-
...SOUTHWEST COLORADO...

CITY           SKY/WX    TMP DP  RH WIND       PRES   REMARKS
DURANGO        FAIR      57  34  41 NE7       30.22R
CORTEZ         FAIR      57  40  52 E3        30.13F
PAGOSA SPRINGS FAIR      55  35  46 CALM      30.32R
TELLURIDE      FAIR      54  33  44 E6        30.43S
WOLF CREEK PAS CLOUDY    50  30  46 SE10G16   30.68R
$$

COZ009-010-012-014-032>034-037-058>063-200800-
...CENTRAL COLORADO...

CITY           SKY/WX    TMP DP  RH WIND       PRES   REMARKS
ASPEN          FAIR      53  36  52 S8        30.32S
BUENA VISTA    FAIR      56  33  40 CALM      30.33S
COPPER MTN     FAIR      54  25  32 W5        30.64S
BERTHOUD PASS  FAIR      45  39  81 NW16      30.65F
COTTONWOOD PAS FAIR      61  25  25 W9        30.47S
GUNNISON       FAIR      48  36  63 NE3       30.33
KREMMLING      FAIR      55  36  47 SW5       30.31S
LEADVILLE      FAIR      42  30  62 NE3       30.47R
MONARCH PASS   MOCLDY    52  23  32 N6        30.74S
SALIDA         FAIR      58  36  43 W5        30.37S
SUNLIGHT       FAIR      54  27  35 W3        30.56F
WILKERSON PASS FAIR      54  27  35 CALM      30.60F
$$

COZ069>075-200800-
...SAN LUIS VALLEY/SANGRE DE CRISTO MOUNTAINS...

CITY           SKY/WX    TMP DP  RH WIND       PRES   REMARKS
ALAMOSA        FAIR      53  43  68 S6        30.29R
DEL NORTE      FAIR      57  34  41 W12       30.32F
LA VETA PASS   NOT AVBL
SAGUACHE       FAIR      61  32  33 NW8       30.32S
$$

COZ035-036-038>040-200800-
...NORTHERN COLORADO FRONT RANGE...

CITY           SKY/WX    TMP DP  RH WIND       PRES   REMARKS
DENVER INTL AP FAIR      71  40  32 SW13      30.08F
DMNS CITY PARK   N/A     65  44  45 SW5       30.07F
AURORA         PTCLDY    65  42  43 S8        30.11S
FRONT RANGE AP FAIR      70  41  35 SW8       30.10F
ERIE MUNI ARPT FAIR      69  37  31 SW5       30.10F
BOULDER MUN AP FAIR      73  32  21 SW9       30.06F
CENTENNIAL     FAIR      67  40  37 CALM      30.12S
BROOMFIELD     NOT AVBL
FORT COLLINS   FAIR      74  40  29 NW3       30.05S
LONGMONT       FAIR      67  41  38 W5        30.06F
$$

COZ041-046-047-076>085-087-088-200800-
...PIKES PEAK/PALMER DIVIDE AND SOUTHERN FOOTHILLS...

CITY           SKY/WX    TMP DP  RH WIND       PRES   REMARKS
COLO. SPRINGS  FAIR      65  46  50 N12       30.16F
A. F. ACADEMY  FAIR      57  44  62 N9        30.18F
SCHRIEVER AFB  FAIR      66  42  41 NW12      30.16F
CHEYENNE MTN   FAIR      72  37  27 CALM      30.16F
ELLICOTT       NOT AVBL
FALCON         FAIR      61  42  51 W12       30.22S
FORT CARSON    FAIR      63  47  55 NW13      30.12S
LIMON          FAIR      54  52  93 CALM      30.09F
MONUMENT HILL  FAIR      54  43  66 SW9       30.24S
CANON CITY     PTCLDY    72  48  43 N9        30.09F
WALSENBURG     FAIR      70  41  35 W7        30.14F
TRINIDAD       FAIR      71  45  39 W12       30.12F
$$

COZ042>045-048>051-090-091-200800-
...NORTHEAST COLORADO...

CITY           SKY/WX    TMP DP  RH WIND       PRES   REMARKS
GREELEY ARPT   FAIR      59  52  77 NE3       30.03S
AKRON          FAIR      70  44  39 SW10      30.01S
BURLINGTON     FAIR      69  55  60 S9        29.98F
WRAY           NOT AVBL
YUMA           FAIR      68  43  40 W8        29.96S
STERLING       FAIR      61  54  77 CALM      29.97R
HOLYOKE        FAIR      66  59  77 W10       29.94S
FORT MORGAN    FAIR      65  42  43 W7        30.03R
$$

COZ086-089-092>099-200800-
...SOUTHEAST COLORADO...

CITY           SKY/WX    TMP DP  RH WIND       PRES   REMARKS
PUEBLO         FAIR      67  48  50 N9        30.03S
LA JUNTA       FAIR      63  52  67 NE3       30.00S
LAMAR          FAIR      61  53  75 CALM      29.97S
SPRINGFIELD      N/A     62  58  86 SW6       30.05F
$$



USA.gov is the U.S. government's official web portal to all federal, state and local government web resources and services.